Location: *
(45.5667°S, 177.5167°W)
Time: 02:34:00
(UTC+00:00)

Cosmos 2221 - Visible Passes

Search period start: 07 October 2022 00:00
Search period end: 17 October 2022 00:00
Orbit: 590 x 614 km, 82.5° (Epoch: 06 October)

Date Brightness Start Highest point End Pass type
(mag) Time Alt. Az. Time Alt. Az. Time Alt. Az.
07 Oct 5.6 12:15:15 10° SSW 12:15:28 11° SSW 12:15:28 11° SSW visible
08 Oct 5.6 10:50:29 10° SSE 10:50:36 10° SSE 10:50:36 10° SSE visible
09 Oct 5.5 11:02:01 10° S 11:02:33 13° SSE 11:02:33 13° SSE visible
10 Oct 5.4 11:13:45 10° S 11:14:29 14° S 11:14:29 14° S visible
11 Oct 5.4 11:25:37 10° S 11:26:26 15° S 11:26:26 15° S visible
12 Oct 5.4 11:37:37 10° SSW 11:38:23 15° SSW 11:38:23 15° SSW visible
13 Oct 5.3 10:12:49 10° SSE 10:13:32 13° SSE 10:13:32 13° SSE visible
13 Oct 5.4 11:49:45 10° SSW 11:50:19 13° SSW 11:50:19 13° SSW visible
14 Oct 5.1 10:24:19 10° S 10:25:29 16° SSE 10:25:29 16° SSE visible
14 Oct 5.5 12:02:04 10° SW 12:02:17 11° SW 12:02:17 11° SW visible
15 Oct 5.0 10:36:02 10° S 10:37:26 19° S 10:37:26 19° S visible
16 Oct 4.9 10:47:53 10° S 10:49:23 21° S 10:49:23 21° S visible
